Location: St. Louis
(38.6270°N, 90.1994°W)
Time: 14:53:21
(UTC-05:00)

BlueWalker 3 - Visible Passes

Search period start: 24 March 2023 00:00
Search period end: 03 April 2023 00:00
Orbit: 497 x 515 km, 53.2° (Epoch: 24 March)

Date Brightness Start Highest point End Pass type
(mag) Time Alt. Az. Time Alt. Az. Time Alt. Az.
24 Mar 4.8 04:10:15 16° E 04:10:15 16° E 04:11:16 10° E visible
24 Mar 2.3 05:45:04 27° W 05:46:35 40° SW 05:50:11 10° SSE visible
24 Mar 4.3 21:06:38 10° SSW 21:07:08 13° SSW 21:07:08 13° SSW visible
25 Mar 2.5 05:27:24 36° SSW 05:27:24 36° SSW 05:30:28 10° SSE visible
25 Mar 2.6 20:46:54 10° SSW 20:49:59 37° SSE 20:49:59 37° SSE visible
26 Mar 4.1 05:09:59 15° SSE 05:09:59 15° SSE 05:10:43 10° SSE visible
26 Mar 2.3 20:27:08 10° SSW 20:30:49 42° SE 20:32:35 25° ENE visible
26 Mar 4.7 22:06:08 10° W 22:07:24 17° WNW 22:07:24 17° WNW visible
27 Mar 2.3 20:07:20 10° SSW 20:11:03 44° SE 20:14:46 10° ENE visible
27 Mar 3.9 21:46:25 10° W 21:49:41 26° NNW 21:49:41 26° NNW visible
28 Mar 2.3 19:47:30 10° SSW 19:51:15 47° SE 19:55:00 10° ENE visible
28 Mar 4.0 21:26:40 10° W 21:29:58 26° NNW 21:31:38 19° N visible
29 Mar 4.1 21:06:52 10° W 21:10:09 25° NNW 21:13:17 11° NNE visible
30 Mar 4.1 20:47:03 10° W 20:50:18 24° NNW 20:53:32 10° NNE visible
31 Mar 4.2 20:27:12 10° W 20:30:25 24° NNW 20:33:38 10° NNE visible
01 Apr 4.2 20:07:19 10° W 20:10:30 23° NNW 20:13:41 10° NNE visible
02 Apr 4.3 19:47:24 10° W 19:50:33 23° NNW 19:53:42 10° NNE visible
